アサシン彗星

C/2017 O1 ( ASASSN )

English version
Home page
Updated on May 21, 2018

---------------------------------------------------------------------

・ プロフィール

発見日 2017年7月19日
発見光度 15.3等
発見者 All-Sky Automated Survey for Supernovae (ASASSN)

・ 写真集

・ 軌道要素

Epoch 2017 Oct. 14.0 TT = JDT 2458040.5
T 2017 Oct. 14.78530 TT                                 MPCW
q   1.4986853            (2000.0)            P               Q
z  +0.0023911      Peri.   20.90794     +0.72168400     -0.63351908
 +/-0.0000009      Node    25.80944     +0.50849164     +0.21172356
e   0.9964164      Incl.   39.84835     +0.46968975     +0.74419534
From 2667 observations 2017 July 19-2018 Mar. 25, mean residual 0".4.

・ 星図

・ 光度変化

        m1 = 5.0 + 5 logΔ + 20.0 log r(t + 35)

---------------------------------------------------------------------

軌道要素はM.P.E.C. 2018-F152に掲載されたものです。
星図はステラナビゲータ Ver.10 (アストロアーツ) で作成したものです。
光度グラフはComet for Windowsで作成したものです。

---------------------------------------------------------------------

Copyright(C) Seiichi Yoshida (comet@aerith.net). All rights reserved.